Wind_Speed
30 28 31 36 38 34 39 39 28 22 18 12 16 24 38 36 24 20 27 26 19 21 23 20 26 28 34 23 17 16 11 3 5 8 13 10 6 12 13 13 15 20 25 25 25 27 26 24 28
27 28 26 32 34 44 43 44 42 35 29 22 18 18 20 36 43 32 31 27 23 31 30 34 40 37 28 13 6 3 2 4 7 10 9 6 13 13 10 9 13 17 25 25 26 25 27 24 27
24 25 27 28 32 39 44 45 45 42 38 34 28 22 18 17 21 35 44 40 40 41 42 35 27 23 12 5 4 5 2 5 9 6 7 11 13 12 9 7 13 14 18 22 23 23 24 25 23
19 22 26 25 34 34 38 43 42 44 43 39 36 32 28 23 19 16 15 16 14 13 13 13 12 10 8 8 9 4 3 6 5 5 7 12 12 9 6 4 8 8 10 15 19 22 21 21 23
19 25 25 30 30 30 33 37 41 42 42 42 40 36 32 28 25 22 20 18 16 15 14 14 14 12 11 12 9 2 4 5 5 6 9 9 6 7 6 4 3 3 7 12 15 13 17 19 18
23 27 24 29 30 31 30 33 36 37 40 38 37 37 35 33 30 27 26 24 22 21 20 20 19 16 14 11 6 1 3 5 6 7 9 9 7 7 6 3 5 6 9 12 15 16 11 15 16
22 19 20 29 27 30 31 30 34 33 33 35 34 32 31 30 29 27 25 24 22 19 18 16 14 13 9 7 4 2 3 6 5 5 6 6 5 5 5 6 12 10 10 8 12 19 12 9 11
25 27 29 29 30 28 27 27 28 28 28 28 28 28 25 24 24 23 22 20 21 18 14 12 11 9 6 5 3 2 2 3 5 4 3 1 1 6 7 10 9 5 1 8 9 13 10 6 7
26 25 26 29 32 32 30 27 25 24 24 22 25 23 22 21 20 18 16 15 12 11 11 12 11 12 9 7 4 2 1 2 1 2 4 5 6 5 7 12 11 9 6 2 6 8 11 3 8
25 24 18 23 28 30 30 27 28 24 21 22 18 19 17 15 14 13 13 13 12 12 10 9 7 6 7 7 6 5 2 1 0 3 4 5 6 6 5 4 8 12 11 9 6 6 9 5 5
17 17 20 21 22 26 28 28 26 26 23 19 18 14 14 11 10 11 9 7 7 7 6 5 4 4 3 3 3 3 4 4 6 6 6 4 5 3 5 3 5 6 12 13 9 7 8 3 5
15 14 18 21 23 23 24 28 27 26 27 22 16 16 14 16 6 11 15 5 4 3 2 3 5 6 9 11 12 12 11 10 11 9 9 9 9 9 7 4 2 4 7 12 15 13 5 4 5
14 13 12 22 21 22 19 32 34 29 24 23 22 16 15 15 15 9 11 10 9 9 9 7 7 10 12 15 17 18 17 15 17 16 11 15 14 13 13 11 9 4 6 8 6 12 15 15 9
13 6 9 16 25 30 18 30 33 34 26 20 20 19 16 11 11 12 12 13 15 15 13 12 11 14 18 22 25 24 24 23 23 25 23 22 18 17 19 17 15 14 11 12 9 1 17 13 11
9 5 9 17 25 26 24 12 25 30 28 24 19 18 15 13 13 15 16 16 18 20 21 21 22 24 26 28 27 25 25 27 28 27 26 28 22 21 23 25 23 21 20 18 16 14 17 14 13
9 9 3 20 23 20 21 27 20 31 25 25 22 19 18 17 17 17 17 18 19 21 24 25 26 27 29 28 26 28 31 32 33 32 31 31 32 33 28 30 31 28 25 25 24 24 24 22 18
9 13 16 17 16 18 16 16 23 25 27 25 22 21 21 19 18 17 16 19 20 20 23 24 25 26 26 27 27 27 29 30 31 37 41 41 38 35 28 26 26 28 28 32 30 27 27 28 25
11 15 18 16 17 17 15 19 25 27 27 27 23 22 24 19 19 20 19 19 20 21 23 24 26 27 29 30 31 31 32 31 31 31 32 32 32 30 26 25 25 26 30 31 31 37 33 32 30
12 16 17 17 19 20 19 22 25 30 29 29 24 26 27 25 24 24 24 23 23 23 24 25 27 29 30 32 34 34 34 34 33 30 29 29 28 27 26 29 29 24 28 31 29 29 34 36 38
14 19 18 17 18 23 24 27 29 31 31 31 24 29 32 31 27 24 26 27 27 26 27 29 30 32 34 34 33 33 34 32 33 29 26 27 27 29 29 29 29 28 27 29 34 33 29 34 34
19 12 21 22 22 26 29 28 24 34 35 32 31 36 36 34 29 27 25 25 26 28 30 33 34 33 35 34 33 33 33 31 30 29 29 30 29 30 31 31 31 32 28 30 32 33 33 32 32
13 26 28 26 29 31 32 27 31 34 37 37 36 36 37 35 31 29 30 32 34 35 36 36 36 34 34 35 35 34 33 32 30 31 32 31 32 32 31 32 30 30 30 32 31 34 36 34 33
20 23 26 26 27 23 34 32 41 39 36 38 37 36 37 34 34 34 36 37 38 38 38 37 37 36 35 35 36 35 35 35 34 31 32 33 35 35 34 33 34 33 31 31 34 34 34 34 36
23 26 27 29 30 33 34 30 37 41 43 41 38 36 35 39 38 38 39 40 42 43 41 39 38 38 37 36 37 37 36 37 36 33 33 34 36 38 39 37 36 35 35 35 34 34 33 34 34
27 28 30 33 37 37 39 38 40 43 45 48 48 44 37 37 41 41 41 42 43 42 40 37 37 36 37 38 38 37 37 36 36 37 39 38 38 38 39 42 42 37 38 37 39 40 38 37 37
28 28 33 37 41 45 45 44 38 43 47 49 49 47 48 44 42 45 44 43 43 44 44 40 39 37 37 38 39 39 39 38 38 39 39 39 39 39 39 38 40 42 40 41 40 42 45 42 43
28 32 36 42 46 50 51 53 50 47 46 47 48 45 45 46 48 46 43 40 54 52 50 42 41 41 39 39 41 43 45 43 42 40 38 38 39 40 41 39 40 42 43 44 44 44 46 44 47
35 39 42 45 47 49 54 54 55 51 53 49 49 50 49 52 51 46 29 15 41 57 47 44 38 39 41 41 41 43 45 47 47 47 46 43 41 41 42 43 44 44 44 45 46 46 48 49 47
43 44 44 46 49 52 53 59 57 52 55 53 53 51 52 56 52 51 46 42 44 46 41 38 38 39 41 41 43 44 46 49 50 51 53 54 53 51 50 50 50 50 49 47 46 47 48 49 50
42 45 48 49 51 54 54 59 62 57 55 57 56 54 57 56 52 51 51 48 42 43 41 39 39 41 42 45 47 50 51 53 54 54 56 57 58 59 57 59 59 58 58 56 53 53 52 51 50
Wind_Direction
32 33 47 47 48 46 46 49 58 65 79 126 167 185 204 189 174 201 234 222 212 227 228 221 262 274 304 311 299 307 304 311 332 335 347 8 79 113 118 87 56 59 55 51 49 46 50 52 53
36 34 41 51 51 50 50 53 57 63 75 94 131 163 179 207 217 204 194 213 233 248 254 257 267 284 291 280 299 278 238 346 337 341 8 49 127 128 123 80 52 72 58 52 51 49 49 49 47
35 43 42 48 55 55 54 54 57 62 68 80 93 109 135 166 202 225 231 235 250 259 261 264 258 258 243 210 173 170 25 344 346 22 46 115 132 127 131 77 61 67 58 51 51 51 49 45 48
37 40 40 37 47 55 60 59 59 61 68 72 76 81 90 101 114 136 164 190 199 207 214 209 191 169 161 159 156 142 15 348 33 47 83 132 143 151 134 112 74 70 58 45 50 49 48 50 45
50 47 43 41 39 48 55 62 63 64 66 68 71 78 83 88 96 105 115 125 132 138 144 144 139 133 142 145 152 110 12 53 39 67 91 117 141 144 126 129 89 89 63 47 47 51 51 49 51
59 53 44 44 49 51 54 55 61 64 64 67 69 72 76 80 86 91 95 97 99 103 110 114 121 134 138 144 151 96 68 51 49 94 97 103 120 138 160 182 139 131 94 69 57 47 52 41 53
50 40 24 47 56 50 53 58 59 59 64 63 64 68 74 78 83 86 90 93 95 98 103 113 124 129 136 141 146 89 82 29 30 45 90 113 140 162 191 148 144 123 79 87 59 51 48 55 54
58 51 56 50 56 52 50 53 56 56 60 67 65 60 63 73 80 86 86 85 85 89 89 91 96 112 124 121 131 103 16 358 9 358 6 62 80 200 186 156 160 161 67 40 31 43 31 63 61
56 49 53 60 52 45 48 47 47 48 47 60 64 64 67 65 68 76 83 88 84 75 82 93 92 94 100 112 139 143 88 37 15 8 348 329 315 320 220 222 228 228 265 286 349 10 355 48 56
44 44 45 53 41 41 42 39 42 43 42 47 63 56 58 68 69 65 64 78 87 84 76 76 91 104 111 115 123 127 130 129 48 5 13 11 357 338 303 284 249 255 259 238 297 341 341 12 357
32 39 37 33 36 40 41 40 37 38 36 40 40 43 43 47 63 64 53 50 37 49 53 51 45 31 16 344 319 305 303 279 238 234 246 268 290 329 16 341 306 291 259 233 241 295 346 333 325
40 29 40 45 39 35 36 43 42 35 34 31 29 28 25 40 48 30 28 15 10 1 11 358 339 326 322 321 315 305 295 285 280 269 259 256 272 275 286 301 26 325 284 257 242 252 290 358 339
23 29 26 37 28 21 39 44 33 28 29 32 28 26 15 14 9 5 354 356 345 321 299 288 289 298 299 300 299 291 285 289 284 272 271 278 271 277 269 266 270 258 279 288 271 247 264 276 260
359 29 44 29 14 12 22 35 20 12 9 6 5 7 355 354 356 348 336 319 314 313 308 297 288 291 298 302 303 296 293 288 291 291 283 287 266 275 273 265 256 254 251 262 264 236 286 247 241
353 8 35 14 3 5 34 351 10 5 0 3 358 359 346 331 325 326 324 314 302 303 300 297 289 287 286 288 293 291 283 283 281 283 289 284 269 274 280 277 259 251 247 246 250 250 249 259 254
6 34 9 348 352 357 2 358 357 0 351 1 360 355 346 332 318 317 318 313 302 294 293 292 289 286 287 289 286 282 282 282 281 281 279 275 269 275 277 275 268 256 249 243 241 241 244 246 247
2 354 360 357 351 355 359 351 342 344 348 359 359 355 351 341 340 327 311 309 307 297 292 294 294 293 292 291 291 290 288 283 280 271 271 276 281 284 277 270 267 253 253 254 251 248 247 246 245
346 356 341 341 354 351 338 344 342 343 348 355 353 344 338 329 329 325 320 311 305 298 297 297 297 297 296 296 296 294 292 287 284 279 277 275 276 274 268 263 260 261 253 251 258 253 251 255 254
320 335 353 348 344 343 346 342 341 343 346 348 345 342 339 329 319 314 311 312 312 308 305 302 301 299 298 297 295 294 292 285 280 275 272 272 271 269 265 263 267 253 250 244 248 256 255 261 258
294 310 337 335 336 341 339 335 341 341 340 340 337 339 334 330 322 313 309 308 305 303 300 299 299 298 296 293 288 284 282 276 272 269 267 265 265 268 267 264 268 263 260 250 246 249 244 246 251
311 305 329 322 327 327 326 329 336 338 336 340 334 334 330 324 321 317 315 312 310 306 301 298 295 293 291 288 286 280 279 276 275 274 274 274 270 268 267 268 264 266 264 258 251 253 254 254 254
278 292 309 314 326 328 326 330 330 330 330 333 332 328 323 321 319 318 315 312 309 306 303 299 295 291 285 283 281 279 279 273 274 275 274 270 273 271 269 266 266 262 263 261 257 258 248 246 251
294 298 310 316 320 300 310 329 327 325 322 331 330 322 320 319 319 317 315 312 311 309 303 298 293 288 286 283 286 288 287 284 280 279 278 275 271 265 267 267 269 268 265 262 262 258 256 255 250
293 300 306 308 314 312 315 321 314 324 328 329 326 324 312 317 319 317 316 315 313 312 308 300 295 291 290 289 287 285 285 285 284 285 285 282 278 273 267 264 265 265 265 263 260 256 257 257 252
291 298 304 307 308 311 315 321 320 323 325 324 327 323 319 315 316 316 316 316 314 311 306 299 293 288 286 285 285 284 283 282 279 280 280 279 277 273 271 271 268 265 267 265 261 257 256 254 257
292 298 304 309 315 315 317 315 325 322 326 324 324 320 320 320 319 321 327 326 321 313 307 302 294 291 291 291 292 293 292 290 286 282 281 281 278 277 274 271 269 269 268 262 260 261 256 255 257
293 301 310 311 314 313 316 316 320 319 319 320 318 318 318 319 323 327 340 323 308 313 306 301 298 298 297 298 298 298 299 298 296 295 295 292 288 285 281 274 270 269 269 266 262 258 258 256 255
296 304 308 311 312 311 312 315 318 323 319 319 318 318 319 320 323 324 336 224 258 293 297 297 297 297 297 298 297 299 301 302 303 303 300 296 290 286 283 281 278 273 269 266 263 261 258 256 256
297 304 306 307 307 310 313 311 316 319 318 319 316 318 319 321 323 322 319 311 300 300 304 302 302 301 302 302 302 301 300 300 299 298 296 295 293 290 287 285 282 280 278 274 271 267 263 261 259
298 302 303 304 306 309 311 309 316 318 318 314 315 318 321 322 319 316 313 311 311 306 309 306 303 303 304 304 303 301 300 298 297 296 295 294 292 290 288 287 285 282 280 277 274 272 269 265 262
Height
11017 11012 11006 11000 10992 10988 10977 10968 10962 10957 10955 10955 10960 10964 10970 10976 10979 10982 10985 10989 10991 10993 10994 10994 10993 10995 10996 10998 10999 11000 11000 11000 10999 10997 10995 10994 10994 10995 10996 10995 10995 10996 10995 10993 10992 10989 10987 10984 10981
11021 11015 11010 11005 11000 10991 10984 10976 10969 10964 10960 10960 10963 10967 10971 10975 10978 10981 10986 10988 10989 10993 10994 10995 10995 10995 10998 11000 11001 11001 11001 11000 11000 10998 10996 10995 10996 10996 10997 10997 10997 10998 10997 10997 10995 10992 10990 10988 10986
11022 11021 11016 11011 11004 10998 10992 10984 10979 10973 10969 10967 10968 10969 10972 10975 10978 10981 10984 10987 10989 10991 10993 10995 10996 10997 11000 11001 11002 11002 11002 11002 11000 10998 10997 10997 10998 10999 10998 10998 10999 10999 10999 10999 10997 10994 10991 10989 10988
11025 11022 11019 11017 11010 11006 10999 10994 10990 10985 10979 10976 10974 10974 10975 10978 10980 10982 10984 10988 10990 10991 10993 10994 10996 10998 11000 11002 11003 11004 11004 11002 11001 11000 10999 10999 11000 11000 11001 11001 11001 11000 11000 11000 11000 10998 10994 10990 10989
11028 11025 11023 11017 11016 11013 11007 11002 10998 10994 10990 10987 10985 10984 10983 10984 10985 10987 10989 10990 10992 10993 10994 10995 10997 10999 11002 11004 11005 11005 11005 11004 11003 11002 11001 11001 11002 11002 11003 11003 11003 11002 11002 11002 11002 11001 10999 10995 10992
11020 11030 11027 11020 11019 11018 11015 11010 11005 11002 10998 10996 10995 10994 10993 10993 10993 10994 10994 10995 10995 10997 10997 10998 11000 11002 11004 11005 11007 11007 11007 11007 11005 11005 11004 11003 11003 11004 11005 11006 11006 11005 11005 11005 11004 11003 11003 11001 10998
11040 11040 11031 11024 11023 11022 11020 11017 11013 11010 11006 11005 11004 11003 11003 11003 11002 11002 11001 11001 11001 11002 11003 11004 11005 11006 11007 11007 11008 11008 11009 11009 11008 11007 11006 11006 11005 11005 11005 11007 11007 11008 11007 11006 11005 11005 11006 11005 11002
11045 11040 11033 11029 11028 11026 11024 11021 11019 11016 11014 11011 11010 11010 11010 11010 11009 11009 11008 11008 11007 11008 11008 11008 11008 11008 11008 11009 11009 11009 11010 11009 11008 11008 11007 11007 11007 11006 11008 11009 11009 11008 11008 11007 11005 11005 11005 11005 11006
11042 11040 11038 11035 11033 11031 11028 11025 11022 11020 11018 11016 11015 11014 11014 11014 11014 11013 11013 11012 11012 11013 11013 11012 11011 11011 11011 11011 11011 11010 11010 11009 11008 11007 11007 11007 11006 11007 11008 11009 11009 11009 11008 11005 11003 11004 11005 11005 11006
11046 11044 11046 11039 11036 11033 11031 11028 11026 11024 11022 11021 11019 11019 11018 11017 11017 11017 11017 11016 11016 11015 11015 11015 11014 11014 11013 11013 11012 11011 11011 11010 11009 11009 11008 11006 11006 11007 11007 11008 11008 11008 11006 11003 11004 11003 11003 11004 11006
11052 11050 11045 11041 11038 11037 11035 11033 11028 11027 11025 11024 11023 11022 11022 11021 11020 11019 11019 11019 11018 11017 11017 11017 11016 11015 11014 11014 11014 11013 11012 11011 11009 11008 11007 11006 11006 11006 11007 11008 11008 11006 11003 11002 11004 11004 11004 11003 11004
11053 11051 11047 11043 11041 11039 11038 11035 11034 11032 11029 11026 11025 11024 11023 11023 11023 11022 11021 11020 11019 11018 11017 11016 11015 11014 11013 11013 11012 11011 11010 11009 11009 11007 11006 11005 11004 11004 11005 11006 11008 11006 11002 11000 11002 11002 11006 11002 11004
11054 11052 11049 11045 11043 11042 11042 11039 11038 11037 11034 11031 11028 11027 11026 11024 11023 11022 11021 11020 11020 11019 11018 11016 11015 11013 11012 11010 11009 11008 11007 11005 11004 11004 11003 11003 11001 11001 11002 11003 11004 11004 11001 10998 11001 11001 11001 11000 11000
11054 11052 11050 11047 11049 11046 11044 11039 11039 11039 11037 11034 11030 11029 11028 11025 11023 11022 11020 11019 11018 11017 11016 11015 11013 11011 11009 11007 11005 11003 11001 11000 10999 10997 10997 10996 10996 10996 10997 10998 11000 11001 11000 10996 10998 11003 10999 10996 10995
11056 11053 11052 11051 11050 11048 11043 11038 11035 11037 11037 11035 11031 11029 11028 11026 11024 11022 11019 11018 11016 11014 11013 11011 11010 11008 11006 11003 11001 10998 10997 10995 10992 10991 10990 10989 10989 10990 10991 10992 10993 10995 10996 10995 10994 10996 10993 10990 10993
11057 11056 11057 11053 11051 11049 11043 11038 11038 11036 11037 11035 11031 11028 11027 11025 11022 11020 11018 11016 11013 11011 11009 11006 11004 11002 11000 10998 10996 10993 10991 10989 10986 10985 10984 10983 10982 10982 10982 10984 10986 10987 10988 10989 10990 10991 10989 10987 10988
11057 11055 11053 11054 11053 11050 11046 11043 11041 11041 11037 11033 11030 11028 11025 11023 11020 11018 11015 11013 11010 11007 11005 11003 11000 10997 10995 10992 10990 10987 10985 10982 10979 10978 10976 10974 10972 10972 10973 10974 10976 10978 10979 10981 10984 10984 10984 10982 10982
11057 11055 11054 11051 11049 11049 11048 11045 11041 11039 11036 11032 11029 11026 11024 11021 11019 11015 11012 11009 11006 11003 11001 10998 10995 10992 10989 10986 10983 10981 10978 10975 10973 10970 10968 10966 10965 10965 10965 10967 10967 10968 10970 10972 10973 10974 10976 10977 10976
11055 11053 11051 11049 11048 11047 11047 11045 11042 11038 11033 11029 11026 11024 11020 11017 11014 11010 11007 11005 11001 10998 10995 10992 10989 10986 10983 10980 10976 10973 10970 10968 10966 10964 10961 10959 10958 10957 10958 10958 10959 10960 10961 10963 10964 10965 10966 10967 10968
11055 11052 11052 11049 11048 11046 11045 11042 11040 11035 11031 11027 11024 11020 11017 11012 11008 11005 11002 10999 10995 10992 10989 10986 10983 10979 10976 10973 10970 10967 10964 10961 10958 10957 10954 10953 10951 10949 10949 10949 10950 10952 10952 10952 10954 10955 10957 10958 10959
11050 11049 11048 11047 11046 11044 11041 11039 11037 11033 11028 11023 11019 11015 11011 11007 11002 10998 10995 10993 10990 10986 10982 10979 10975 10972 10968 10964 10961 10958 10956 10953 10951 10949 10947 10945 10944 10942 10941 10940 10941 10942 10942 10944 10945 10946 10946 10948 10949
11049 11047 11045 11044 11042 11040 11036 11035 11033 11028 11023 11021 11015 11011 11006 11001 10996 10993 10990 10987 10983 10979 10974 10970 10966 10962 10959 10955 10952 10950 10947 10944 10942 10940 10938 10938 10935 10934 10933 10933 10932 10933 10935 10934 10935 10935 10937 10939 10940
11045 11044 11042 11041 11039 11035 11034 11027 11025 11024 11023 11016 11009 11004 11001 10995 10990 10988 10984 10979 10975 10971 10966 10961 10957 10953 10949 10946 10942 10939 10936 10934 10933 10932 10930 10929 10928 10926 10924 10924 10923 10923 10925 10926 10926 10926 10926 10928 10930
11040 11039 11038 11035 11035 11031 11031 11030 11018 11013 11010 11010 11007 11003 10994 10988 10986 10982 10976 10972 10967 10962 10957 10952 10948 10943 10939 10936 10932 10931 10928 10926 10924 10923 10921 10920 10919 10917 10915 10915 10914 10914 10914 10915 10915 10917 10916 10915 10918
11037 11036 11033 11031 11028 11029 11023 11022 11015 11007 11004 10997 10994 10991 10992 10985 10979 10976 10972 10968 10960 10954 10948 10944 10938 10935 10932 10928 10925 10922 10920 10918 10916 10914 10912 10911 10910 10908 10907 10904 10903 10905 10904 10903 10904 10905 10905 10904 10905
11032 11032 11029 11025 11021 11016 11016 11014 11015 11002 10996 10988 10983 10979 10972 10973 10972 10968 10967 10959 10951 10948 10940 10935 10928 10924 10921 10918 10914 10912 10910 10908 10906 10904 10903 10901 10899 10896 10895 10894 10893 10889 10889 10891 10892 10892 10893 10894 10894
11028 11027 11024 11020 11016 11007 11001 10999 11004 11001 10996 10987 10979 10975 10970 10964 10960 10961 10956 10946 10940 10935 10935 10926 10918 10914 10911 10907 10904 10900 10897 10895 10894 10893 10892 10890 10886 10884 10882 10881 10880 10877 10876 10875 10877 10878 10878 10880 10881
11023 11020 11017 11013 11009 11003 10993 10993 10990 10984 10980 10978 10972 10966 10961 10956 10953 10953 10958 10960 10940 10933 10930 10917 10912 10906 10901 10899 10896 10892 10888 10885 10882 10879 10876 10875 10873 10871 10868 10866 10864 10863 10863 10860 10860 10860 10863 10864 10864
11015 11013 11009 11007 11002 10996 10989 10977 10980 10980 10970 10967 10963 10959 10953 10947 10941 10938 10941 10940 10934 10925 10920 10909 10901 10897 10894 10890 10887 10883 10879 10875 10871 10868 10864 10860 10857 10855 10852 10850 10848 10847 10846 10845 10845 10844 10845 10847 10848
11007 11004 11000 10998 10994 10987 10983 10967 10963 10968 10962 10955 10953 10949 10943 10937 10932 10927 10921 10917 10914 10905 10900 10895 10891 10888 10884 10879 10875 10871 10867 10863 10858 10854 10850 10846 10841 10837 10836 10832 10830 10829 10827 10827 10827 10826 10827 10829 10831